HUN91C CYYZ-LHBP

Flight info

Callsign HUN91C
Flight time N/A
Altitude 37000
Route VERDO7 IPTOS DCT ANCER DCT JANJO/M084F370 DCT 56N050W 57N040W 58N030W 58N020W DCT GOMUP/N0481F370 DCT GINGA/N0484F390 DCT TLA N97 NATEB N610 LONAM/N0489F410 DCT BEDUM DCT MALYK DCT DLE DCT LARET DCT KENIG DCT TALEG DCT MAREM DCT BEKVI DCT ODNEM DCT NIT DCT ARFOX
Aircraft A359/H-SDE2E3GHIJ1J3J4J5LM1ORWXYZ/LB1D1

Departure

Time N/A
Airport Toronto Pearson International Airport (CYYZ)

Arrival

Time 2026-05-06 18:48
Airport Budapest Liszt Ferenc International Airport (LHBP)
Time Latitude Longitude Altitude Speed Heading
2026-05-06 15:14 58.09314 -26.13662 39053 ft 522 kts 87°
2026-05-06 15:14 58.09373 -26.06797 39052 ft 522 kts 88°
2026-05-06 15:15 58.09480 -25.93074 39054 ft 522 kts 88°
2026-05-06 15:15 58.09573 -25.79363 39036 ft 521 kts 88°
2026-05-06 15:16 58.09650 -25.65790 39039 ft 520 kts 88°
2026-05-06 15:16 58.09713 -25.52131 39037 ft 520 kts 88°
2026-05-06 15:17 58.09761 -25.38471 39043 ft 520 kts 88°
2026-05-06 15:17 58.09795 -25.24779 39018 ft 522 kts 88°
2026-05-06 15:18 58.09815 -25.11031 39018 ft 523 kts 89°
2026-05-06 15:18 58.09819 -24.97282 39001 ft 523 kts 89°
2026-05-06 15:19 58.09809 -24.83517 39004 ft 523 kts 89°
2026-05-06 15:19 58.09784 -24.69769 38984 ft 523 kts 89°
2026-05-06 15:20 58.09744 -24.55981 38995 ft 526 kts 89°
2026-05-06 15:20 58.09689 -24.42141 38956 ft 527 kts 89°
2026-05-06 15:21 58.09618 -24.28311 38973 ft 526 kts 89°
2026-05-06 15:21 58.09533 -24.14509 38947 ft 525 kts 89°
2026-05-06 15:22 58.09433 -24.00712 38938 ft 525 kts 89°
2026-05-06 15:22 58.09318 -23.86869 38923 ft 527 kts 90°
2026-05-06 15:23 58.09188 -23.72989 38904 ft 528 kts 90°
2026-05-06 15:23 58.09042 -23.59090 38904 ft 529 kts 90°
2026-05-06 15:24 58.08881 -23.45182 38887 ft 529 kts 90°
2026-05-06 15:24 58.08705 -23.31284 38900 ft 530 kts 90°
2026-05-06 15:25 58.08513 -23.17387 38866 ft 530 kts 90°
2026-05-06 15:25 58.08308 -23.03571 38867 ft 530 kts 90°
2026-05-06 15:26 58.08087 -22.89674 38844 ft 529 kts 91°
2026-05-06 15:26 58.07850 -22.75802 38839 ft 528 kts 91°
2026-05-06 15:27 58.07599 -22.61939 38834 ft 527 kts 91°
2026-05-06 15:27 58.07333 -22.48079 38829 ft 528 kts 91°
2026-05-06 15:28 58.07051 -22.34200 38815 ft 528 kts 91°
2026-05-06 15:28 58.06755 -22.20340 38811 ft 528 kts 91°
2026-05-06 15:29 58.06443 -22.06473 38802 ft 529 kts 92°
2026-05-06 15:29 58.06116 -21.92605 38806 ft 529 kts 92°
2026-05-06 15:30 58.05774 -21.78735 38784 ft 529 kts 92°
2026-05-06 15:30 58.05417 -21.64862 38783 ft 529 kts 92°
2026-05-06 15:31 58.05045 -21.50975 38756 ft 529 kts 92°
2026-05-06 15:31 58.04660 -21.37201 38764 ft 529 kts 92°
2026-05-06 15:32 58.04050 -21.16401 38758 ft 530 kts 92°
2026-05-06 15:32 58.03624 -21.02507 38741 ft 530 kts 93°
2026-05-06 15:33 58.03183 -20.88623 38742 ft 530 kts 93°
2026-05-06 15:33 58.02727 -20.74725 38729 ft 530 kts 93°
2026-05-06 15:34 58.02256 -20.60848 38750 ft 530 kts 93°
2026-05-06 15:34 58.01769 -20.46948 38722 ft 531 kts 93°
2026-05-06 15:35 58.01266 -20.33050 38721 ft 531 kts 94°
2026-05-06 15:35 58.00748 -20.19143 38713 ft 531 kts 94°
2026-05-06 15:36 58.00215 -20.05239 38722 ft 531 kts 94°
2026-05-06 15:36 57.99611 -19.91377 38731 ft 531 kts 96°
2026-05-06 15:37 57.98756 -19.77541 38722 ft 532 kts 97°
2026-05-06 15:37 57.97856 -19.63708 38722 ft 532 kts 97°
2026-05-06 15:38 57.96981 -19.49961 38738 ft 532 kts 97°
2026-05-06 15:38 57.96101 -19.36042 38738 ft 532 kts 97°
2026-05-06 15:39 57.95221 -19.22302 38738 ft 532 kts 97°
2026-05-06 15:39 57.94321 -19.08491 38738 ft 532 kts 97°
2026-05-06 15:40 57.93404 -18.94677 38752 ft 532 kts 97°
2026-05-06 15:40 57.92473 -18.80886 38752 ft 532 kts 97°
2026-05-06 15:41 57.91526 -18.67101 38748 ft 530 kts 97°
2026-05-06 15:41 57.90567 -18.53349 38760 ft 530 kts 97°
2026-05-06 15:42 57.89591 -18.39586 38765 ft 531 kts 97°
2026-05-06 15:42 57.88601 -18.25830 38769 ft 531 kts 97°
2026-05-06 15:43 57.87595 -18.12076 38769 ft 531 kts 98°
2026-05-06 15:43 57.86574 -17.98329 38781 ft 531 kts 98°
2026-05-06 15:44 57.85538 -17.84581 38782 ft 532 kts 98°
2026-05-06 15:44 57.84486 -17.70830 38782 ft 532 kts 98°
2026-05-06 15:45 57.83425 -17.57163 38782 ft 533 kts 98°
2026-05-06 15:45 57.82343 -17.43422 38770 ft 532 kts 98°
2026-05-06 15:46 57.81248 -17.29711 38790 ft 530 kts 98°
2026-05-06 15:46 57.80141 -17.16040 38789 ft 531 kts 98°
2026-05-06 15:47 57.79017 -17.02360 38788 ft 531 kts 98°
2026-05-06 15:47 57.77879 -16.88682 38788 ft 531 kts 99°
2026-05-06 15:48 57.76725 -16.75012 38788 ft 531 kts 99°
2026-05-06 15:48 57.75556 -16.61347 38788 ft 531 kts 99°
2026-05-06 15:49 57.74373 -16.47692 38786 ft 532 kts 99°
2026-05-06 15:49 57.73172 -16.34008 38790 ft 533 kts 99°
2026-05-06 15:50 57.71957 -16.20338 38790 ft 533 kts 99°
2026-05-06 15:50 57.70725 -16.06663 38787 ft 533 kts 99°
2026-05-06 15:51 57.69480 -15.93011 38793 ft 533 kts 99°
2026-05-06 15:51 57.68220 -15.79365 38788 ft 533 kts 99°
2026-05-06 15:52 57.66952 -15.65796 38791 ft 533 kts 100°
2026-05-06 15:52 57.65872 -15.54369 38788 ft 533 kts 100°
2026-05-06 15:53 57.64356 -15.38516 38798 ft 534 kts 100°
2026-05-06 15:53 57.63251 -15.27105 38792 ft 534 kts 100°
2026-05-06 15:54 57.61918 -15.13490 38795 ft 534 kts 100°
2026-05-06 15:54 57.60570 -14.99875 38795 ft 534 kts 100°
2026-05-06 15:55 57.59208 -14.86271 38795 ft 534 kts 100°
2026-05-06 15:55 57.57832 -14.72694 38807 ft 532 kts 101°
2026-05-06 15:56 57.56445 -14.59150 38807 ft 532 kts 101°
2026-05-06 15:56 57.55050 -14.45693 38815 ft 533 kts 101°
2026-05-06 15:57 57.53632 -14.32156 38823 ft 533 kts 101°
2026-05-06 15:57 57.52200 -14.18629 38829 ft 533 kts 101°
2026-05-06 15:58 57.50752 -14.05107 38837 ft 533 kts 101°
2026-05-06 15:58 57.49291 -13.91601 38851 ft 533 kts 101°
2026-05-06 15:59 57.47817 -13.78119 38851 ft 532 kts 101°
2026-05-06 15:59 57.46328 -13.64653 38850 ft 532 kts 101°
2026-05-06 16:00 57.44826 -13.51199 38853 ft 531 kts 101°
2026-05-06 16:00 57.43311 -13.37778 38862 ft 531 kts 101°
2026-05-06 16:01 57.41783 -13.24372 38871 ft 531 kts 102°
2026-05-06 16:01 57.40243 -13.10994 38861 ft 529 kts 102°
2026-05-06 16:02 57.38693 -12.97668 38865 ft 529 kts 102°
2026-05-06 16:02 57.37130 -12.84356 38873 ft 529 kts 102°
2026-05-06 16:03 57.35551 -12.71045 38878 ft 529 kts 102°
2026-05-06 16:03 57.33969 -12.57839 38878 ft 529 kts 102°
2026-05-06 16:04 57.32364 -12.44560 38881 ft 529 kts 102°
2026-05-06 16:04 57.30744 -12.31291 38886 ft 529 kts 102°
2026-05-06 16:05 57.29111 -12.18044 38886 ft 528 kts 102°
2026-05-06 16:05 57.27466 -12.04821 38886 ft 528 kts 103°
2026-05-06 16:06 57.25808 -11.91613 38890 ft 527 kts 103°
2026-05-06 16:06 57.24139 -11.78444 38894 ft 526 kts 103°
2026-05-06 16:07 57.22460 -11.65312 38900 ft 526 kts 103°
2026-05-06 16:07 57.20767 -11.52192 38900 ft 526 kts 103°
2026-05-06 16:08 57.19059 -11.39071 38905 ft 526 kts 103°
2026-05-06 16:08 57.17339 -11.25979 38913 ft 525 kts 103°
2026-05-06 16:09 57.15609 -11.12922 38896 ft 524 kts 104°
2026-05-06 16:09 57.13866 -10.99889 38914 ft 523 kts 104°
2026-05-06 16:10 57.12113 -10.86891 38920 ft 524 kts 104°
2026-05-06 16:10 57.10346 -10.73898 39190 ft 523 kts 104°
2026-05-06 16:11 57.09460 -10.67422 39385 ft 522 kts 104°
2026-05-06 16:11 57.08573 -10.60974 39597 ft 519 kts 104°
2026-05-06 16:11 57.07697 -10.54627 39768 ft 518 kts 105°
2026-05-06 16:11 57.06808 -10.48211 39878 ft 518 kts 105°
2026-05-06 16:12 57.05914 -10.41793 39985 ft 519 kts 105°
2026-05-06 16:12 57.05018 -10.35377 40105 ft 519 kts 105°
2026-05-06 16:12 57.04117 -10.28962 40208 ft 519 kts 105°
2026-05-06 16:12 57.03212 -10.22541 40319 ft 519 kts 105°
2026-05-06 16:13 57.02306 -10.16138 40434 ft 519 kts 105°
2026-05-06 16:13 57.01396 -10.09732 40530 ft 519 kts 105°
2026-05-06 16:13 56.99563 -9.96911 40600 ft 522 kts 105°
2026-05-06 16:14 56.97661 -9.84042 40751 ft 523 kts 106°
2026-05-06 16:14 56.95727 -9.71210 40936 ft 522 kts 106°
2026-05-06 16:15 56.93785 -9.58391 40961 ft 522 kts 106°
2026-05-06 16:15 56.91810 -9.45597 40956 ft 522 kts 108°
2026-05-06 16:16 56.89349 -9.33103 40974 ft 523 kts 112°
2026-05-06 16:16 56.86700 -9.20676 40969 ft 525 kts 112°
2026-05-06 16:17 56.84428 -9.08005 40969 ft 525 kts 108°
2026-05-06 16:17 56.82321 -8.95218 40977 ft 525 kts 107°
2026-05-06 16:18 56.80233 -8.82438 40980 ft 525 kts 107°
2026-05-06 16:18 56.78124 -8.69685 40979 ft 525 kts 107°
2026-05-06 16:19 56.75992 -8.56953 40981 ft 525 kts 107°
2026-05-06 16:19 56.73848 -8.44251 40979 ft 525 kts 107°
2026-05-06 16:20 56.71690 -8.31564 40983 ft 525 kts 107°
2026-05-06 16:20 56.69518 -8.18880 40983 ft 525 kts 108°
2026-05-06 16:21 56.67334 -8.06216 40988 ft 525 kts 108°
2026-05-06 16:21 56.65134 -7.93547 40987 ft 526 kts 108°
2026-05-06 16:22 56.62918 -7.80879 40982 ft 526 kts 108°
2026-05-06 16:22 56.60705 -7.68313 40983 ft 526 kts 108°
2026-05-06 16:23 56.58469 -7.55705 40995 ft 524 kts 108°
2026-05-06 16:23 56.56223 -7.43122 40989 ft 524 kts 108°
2026-05-06 16:24 56.53966 -7.30567 40991 ft 524 kts 108°
2026-05-06 16:24 56.51694 -7.18016 40996 ft 524 kts 108°
2026-05-06 16:25 56.49410 -7.05481 40995 ft 524 kts 108°
2026-05-06 16:25 56.47115 -6.92971 41008 ft 524 kts 108°
2026-05-06 16:26 56.44809 -6.80482 40991 ft 524 kts 108°
2026-05-06 16:26 56.42490 -6.68010 40993 ft 524 kts 109°
2026-05-06 16:27 56.40158 -6.55544 40980 ft 524 kts 109°
2026-05-06 16:27 56.37816 -6.43113 40990 ft 522 kts 109°
2026-05-06 16:28 56.35469 -6.30734 41003 ft 522 kts 109°
2026-05-06 16:28 56.33109 -6.18365 41006 ft 521 kts 109°
2026-05-06 16:29 56.30736 -6.06006 41005 ft 522 kts 109°
2026-05-06 16:29 56.28353 -5.93682 41005 ft 521 kts 109°
2026-05-06 16:30 56.26362 -5.83440 41007 ft 522 kts 109°
2026-05-06 16:30 56.23547 -5.69053 41006 ft 521 kts 110°
2026-05-06 16:31 56.21147 -5.56868 40990 ft 520 kts 110°
2026-05-06 16:31 56.18706 -5.44554 40990 ft 520 kts 110°
2026-05-06 16:32 56.16285 -5.32419 41001 ft 519 kts 110°
2026-05-06 16:32 56.13842 -5.20247 41003 ft 519 kts 110°
2026-05-06 16:33 56.11390 -5.08102 41005 ft 518 kts 110°
2026-05-06 16:34 56.07685 -4.89898 41000 ft 518 kts 110°
2026-05-06 16:34 56.05202 -4.77791 41005 ft 518 kts 110°
2026-05-06 16:35 56.02710 -4.65710 41012 ft 518 kts 111°
2026-05-06 16:35 56.00205 -4.53637 41019 ft 518 kts 111°
2026-05-06 16:36 55.97689 -4.41588 41018 ft 517 kts 111°
2026-05-06 16:36 55.95163 -4.29562 41019 ft 517 kts 111°
2026-05-06 16:37 55.92624 -4.17543 41016 ft 517 kts 111°
2026-05-06 16:37 55.90076 -4.05557 41014 ft 517 kts 111°
2026-05-06 16:38 55.87515 -3.93577 41013 ft 517 kts 111°
2026-05-06 16:38 55.84943 -3.81613 41015 ft 517 kts 111°
2026-05-06 16:39 55.82361 -3.69677 41018 ft 517 kts 112°
2026-05-06 16:39 55.79767 -3.57751 41021 ft 517 kts 112°
2026-05-06 16:40 55.77605 -3.47867 41020 ft 517 kts 112°
2026-05-06 16:40 55.74991 -3.35975 41026 ft 517 kts 112°
2026-05-06 16:41 55.72366 -3.24104 41017 ft 516 kts 112°
2026-05-06 16:41 55.69731 -3.12253 41018 ft 516 kts 112°
2026-05-06 16:42 55.67087 -3.00433 41021 ft 516 kts 112°
2026-05-06 16:42 55.64433 -2.88629 41025 ft 516 kts 112°
2026-05-06 16:43 55.61766 -2.76837 41027 ft 516 kts 112°
2026-05-06 16:43 55.59091 -2.65076 41033 ft 515 kts 113°
2026-05-06 16:44 55.56405 -2.53330 41032 ft 515 kts 113°
2026-05-06 16:44 55.53708 -2.41603 41043 ft 515 kts 113°
2026-05-06 16:45 55.50997 -2.29881 41042 ft 515 kts 113°
2026-05-06 16:45 55.48278 -2.18188 41050 ft 515 kts 113°
2026-05-06 16:46 55.45548 -2.06511 41050 ft 515 kts 113°
2026-05-06 16:46 55.42808 -1.94853 41057 ft 515 kts 114°
2026-05-06 16:47 55.40056 -1.83207 41072 ft 515 kts 114°
2026-05-06 16:47 55.37312 -1.71660 41075 ft 515 kts 114°
2026-05-06 16:48 55.34537 -1.60046 41076 ft 515 kts 114°
2026-05-06 16:48 55.31754 -1.48458 41073 ft 515 kts 114°
2026-05-06 16:49 55.28960 -1.36887 41071 ft 515 kts 114°
2026-05-06 16:49 55.26155 -1.25332 41069 ft 515 kts 114°
2026-05-06 16:50 55.23340 -1.13797 41063 ft 514 kts 114°
2026-05-06 16:50 55.20521 -1.02307 41061 ft 514 kts 114°
2026-05-06 16:51 55.17690 -0.90828 41061 ft 514 kts 114°
2026-05-06 16:51 55.14849 -0.79365 41061 ft 514 kts 115°
2026-05-06 16:52 55.11994 -0.67909 41067 ft 514 kts 115°
2026-05-06 16:52 55.09130 -0.56479 41061 ft 514 kts 115°
2026-05-06 16:53 55.06254 -0.45054 41061 ft 514 kts 115°
2026-05-06 16:53 55.03370 -0.33659 41058 ft 514 kts 115°
2026-05-06 16:54 55.00473 -0.22272 41047 ft 514 kts 115°
2026-05-06 16:54 54.97590 -0.10997 41058 ft 513 kts 115°
2026-05-06 16:55 54.94677 0.00338 41056 ft 513 kts 115°
2026-05-06 16:55 54.91760 0.11633 41059 ft 512 kts 115°
2026-05-06 16:56 54.88832 0.22914 41056 ft 512 kts 115°
2026-05-06 16:56 54.85896 0.34166 41056 ft 512 kts 116°
2026-05-06 16:57 54.82949 0.45406 41053 ft 512 kts 116°
2026-05-06 16:57 54.79991 0.56633 41053 ft 512 kts 116°
2026-05-06 16:58 54.77024 0.67834 41056 ft 512 kts 116°
2026-05-06 16:58 54.74049 0.79015 41041 ft 511 kts 116°
2026-05-06 16:59 54.71065 0.90174 41047 ft 511 kts 116°
2026-05-06 16:59 54.68071 1.01314 41048 ft 511 kts 116°
2026-05-06 17:00 54.65069 1.12432 41048 ft 511 kts 116°
2026-05-06 17:00 54.62056 1.23533 41048 ft 510 kts 117°
2026-05-06 17:01 54.59036 1.34607 41044 ft 510 kts 117°
2026-05-06 17:01 54.56004 1.45674 41043 ft 510 kts 117°
2026-05-06 17:02 54.52965 1.56712 41037 ft 510 kts 117°
2026-05-06 17:02 54.49917 1.67732 41037 ft 510 kts 117°
2026-05-06 17:03 54.46878 1.78664 41036 ft 509 kts 117°
2026-05-06 17:03 54.43813 1.89637 41037 ft 509 kts 117°
2026-05-06 17:04 54.40740 2.00587 41032 ft 509 kts 117°
2026-05-06 17:04 54.37660 2.11513 41031 ft 509 kts 117°
2026-05-06 17:05 54.34569 2.22423 41036 ft 509 kts 118°
2026-05-06 17:05 54.31467 2.33324 41018 ft 509 kts 118°
2026-05-06 17:06 54.28357 2.44199 41016 ft 509 kts 118°
2026-05-06 17:06 54.25233 2.55077 41031 ft 509 kts 118°
2026-05-06 17:07 54.22103 2.65920 41009 ft 509 kts 118°
2026-05-06 17:07 54.18964 2.76747 41019 ft 508 kts 118°
2026-05-06 17:08 54.15823 2.87534 41014 ft 507 kts 118°
2026-05-06 17:08 54.12673 2.98299 41010 ft 507 kts 118°
2026-05-06 17:09 54.09532 3.08984 41011 ft 507 kts 118°
2026-05-06 17:09 54.06342 3.19788 41001 ft 507 kts 118°
2026-05-06 17:10 54.03165 3.30497 41006 ft 507 kts 119°
2026-05-06 17:10 54.00001 3.41116 41006 ft 507 kts 119°
2026-05-06 17:11 53.96787 3.51853 40996 ft 506 kts 119°
2026-05-06 17:11 53.93609 3.62425 40986 ft 506 kts 119°
2026-05-06 17:12 53.90401 3.73049 40993 ft 505 kts 119°
2026-05-06 17:12 53.87186 3.83648 40987 ft 505 kts 119°
2026-05-06 17:13 53.84117 3.94347 40985 ft 507 kts 112°
2026-05-06 17:13 53.81927 4.05706 40985 ft 508 kts 108°
2026-05-06 17:14 53.79928 4.17174 40985 ft 508 kts 108°
2026-05-06 17:14 53.77945 4.28659 40980 ft 509 kts 108°
2026-05-06 17:15 53.75935 4.40129 40976 ft 509 kts 108°
2026-05-06 17:15 53.73904 4.51575 40977 ft 509 kts 109°
2026-05-06 17:16 53.71857 4.63014 40972 ft 509 kts 109°
2026-05-06 17:16 53.69801 4.74434 40972 ft 509 kts 109°
2026-05-06 17:17 53.67735 4.85844 40966 ft 509 kts 109°
2026-05-06 17:17 53.65657 4.97251 40966 ft 509 kts 109°
2026-05-06 17:18 53.63570 5.08636 40845 ft 508 kts 109°
2026-05-06 17:18 53.61478 5.19982 41085 ft 506 kts 109°
2026-05-06 17:19 53.59391 5.31226 40958 ft 507 kts 109°
2026-05-06 17:19 53.57273 5.42569 40955 ft 508 kts 109°
2026-05-06 17:20 53.55143 5.53911 40952 ft 508 kts 109°
2026-05-06 17:20 53.53005 5.65224 40949 ft 508 kts 109°
2026-05-06 17:21 53.50854 5.76542 40949 ft 508 kts 110°
2026-05-06 17:21 53.48695 5.87831 40941 ft 508 kts 110°
2026-05-06 17:22 53.46524 5.99116 40944 ft 508 kts 110°
2026-05-06 17:22 53.44341 6.10394 40938 ft 508 kts 110°
2026-05-06 17:23 53.42149 6.21655 40931 ft 508 kts 110°
2026-05-06 17:23 53.39948 6.32897 40932 ft 507 kts 110°
2026-05-06 17:24 53.37739 6.44112 40929 ft 507 kts 110°
2026-05-06 17:24 53.35513 6.55314 40924 ft 507 kts 111°
2026-05-06 17:25 53.32606 6.66002 40914 ft 504 kts 119°
2026-05-06 17:25 53.29395 6.76409 40915 ft 504 kts 120°
2026-05-06 17:26 53.26126 6.86759 40912 ft 503 kts 120°
2026-05-06 17:26 53.22856 6.97092 40911 ft 503 kts 120°
2026-05-06 17:27 53.19588 7.07417 40910 ft 503 kts 120°
2026-05-06 17:27 53.16331 7.17679 40902 ft 503 kts 120°
2026-05-06 17:28 53.13581 7.26310 40907 ft 503 kts 121°
2026-05-06 17:28 53.10291 7.36598 40897 ft 503 kts 121°
2026-05-06 17:29 53.06992 7.46867 40898 ft 503 kts 121°
2026-05-06 17:29 53.03685 7.57119 40893 ft 503 kts 121°
2026-05-06 17:30 53.00371 7.67351 40872 ft 503 kts 121°
2026-05-06 17:30 52.97047 7.77568 40884 ft 503 kts 121°
2026-05-06 17:31 52.93704 7.87759 40887 ft 503 kts 121°
2026-05-06 17:31 52.90351 7.97926 40885 ft 503 kts 121°
2026-05-06 17:32 52.86994 8.08074 40885 ft 503 kts 121°
2026-05-06 17:32 52.83630 8.18204 40873 ft 502 kts 121°
2026-05-06 17:33 52.80257 8.28322 40872 ft 502 kts 122°
2026-05-06 17:33 52.76898 8.38356 40889 ft 502 kts 122°
2026-05-06 17:34 52.73511 8.48432 40884 ft 502 kts 122°
2026-05-06 17:34 52.70115 8.58495 40872 ft 502 kts 122°
2026-05-06 17:35 52.66711 8.68541 40865 ft 501 kts 122°
2026-05-06 17:35 52.63302 8.78557 40861 ft 501 kts 122°
2026-05-06 17:36 52.58176 8.93545 40846 ft 501 kts 122°
2026-05-06 17:36 52.54751 9.03512 40828 ft 501 kts 122°
2026-05-06 17:37 52.51313 9.13476 40836 ft 501 kts 122°
2026-05-06 17:37 52.47869 9.23417 40829 ft 501 kts 122°
2026-05-06 17:38 52.44416 9.33343 40828 ft 501 kts 123°
2026-05-06 17:38 52.40953 9.43260 40829 ft 501 kts 123°
2026-05-06 17:39 52.37483 9.53158 40821 ft 501 kts 123°
2026-05-06 17:39 52.34006 9.63034 40831 ft 501 kts 123°
2026-05-06 17:40 52.30523 9.72891 40825 ft 501 kts 123°
2026-05-06 17:40 52.27031 9.82735 40826 ft 501 kts 123°
2026-05-06 17:41 52.23499 9.92514 40800 ft 500 kts 126°
2026-05-06 17:41 52.19610 10.01888 40810 ft 498 kts 128°
2026-05-06 17:42 52.15627 10.11131 40806 ft 498 kts 128°
2026-05-06 17:42 52.11681 10.20412 40805 ft 499 kts 128°
2026-05-06 17:43 52.07764 10.29720 40800 ft 499 kts 127°
2026-05-06 17:43 52.03848 10.39027 40800 ft 498 kts 128°
2026-05-06 17:44 51.99958 10.48237 40807 ft 498 kts 128°
2026-05-06 17:44 51.96033 10.57490 40790 ft 498 kts 128°
2026-05-06 17:45 51.92099 10.66727 40800 ft 498 kts 128°
2026-05-06 17:45 51.88157 10.75949 40785 ft 498 kts 128°
2026-05-06 17:46 51.84202 10.85124 40763 ft 496 kts 130°
2026-05-06 17:46 51.79820 10.93680 40782 ft 493 kts 134°
2026-05-06 17:47 51.75312 11.02026 40781 ft 493 kts 135°
2026-05-06 17:47 51.70778 11.10321 40786 ft 493 kts 135°
2026-05-06 17:48 51.66248 11.18599 40769 ft 492 kts 135°
2026-05-06 17:48 51.61865 11.27064 40790 ft 495 kts 128°
2026-05-06 17:49 51.58136 11.36376 40785 ft 496 kts 125°
2026-05-06 17:49 51.54542 11.45834 40783 ft 496 kts 125°
2026-05-06 17:50 51.50960 11.55293 40779 ft 496 kts 125°
2026-05-06 17:50 51.47355 11.64730 40778 ft 496 kts 125°
2026-05-06 17:51 51.43735 11.74140 40778 ft 496 kts 125°
2026-05-06 17:51 51.40104 11.83537 40779 ft 496 kts 125°
2026-05-06 17:52 51.36495 11.92840 40773 ft 496 kts 125°
2026-05-06 17:52 51.32853 12.02199 40752 ft 495 kts 126°
2026-05-06 17:53 51.29207 12.11536 40771 ft 494 kts 126°
2026-05-06 17:53 51.25562 12.20834 40761 ft 494 kts 126°
2026-05-06 17:54 51.21907 12.30124 40757 ft 494 kts 126°
2026-05-06 17:54 51.18244 12.39402 40754 ft 494 kts 126°
2026-05-06 17:55 51.14573 12.48667 40748 ft 495 kts 126°
2026-05-06 17:55 51.10891 12.57926 40748 ft 496 kts 126°
2026-05-06 17:56 51.07230 12.67247 40748 ft 497 kts 124°
2026-05-06 17:56 51.03751 12.76761 40749 ft 498 kts 123°
2026-05-06 17:57 51.00296 12.86287 40732 ft 498 kts 124°
2026-05-06 17:57 50.96798 12.95794 40741 ft 499 kts 124°
2026-05-06 17:58 50.93271 13.05282 40754 ft 499 kts 124°
2026-05-06 17:58 50.89731 13.14751 40754 ft 499 kts 124°
2026-05-06 17:59 50.86188 13.24198 40748 ft 499 kts 124°
2026-05-06 17:59 50.82638 13.33632 40742 ft 498 kts 125°
2026-05-06 18:00 50.79096 13.43013 40735 ft 497 kts 125°
2026-05-06 18:00 50.75547 13.52376 40742 ft 496 kts 125°
2026-05-06 18:01 50.71950 13.61564 40736 ft 493 kts 130°
2026-05-06 18:01 50.69821 13.65786 40577 ft 490 kts 134°
2026-05-06 18:01 50.67590 13.69849 40366 ft 489 kts 136°
2026-05-06 18:02 50.65327 13.73820 40117 ft 488 kts 136°
2026-05-06 18:02 50.63035 13.77771 39872 ft 488 kts 137°
2026-05-06 18:02 50.60740 13.81699 39644 ft 487 kts 137°
2026-05-06 18:02 50.58447 13.85621 39411 ft 487 kts 137°
2026-05-06 18:03 50.56156 13.89543 39184 ft 487 kts 137°
2026-05-06 18:03 50.53869 13.93463 38958 ft 486 kts 137°
2026-05-06 18:03 50.51587 13.97378 38776 ft 486 kts 137°
2026-05-06 18:03 50.49306 14.01289 38735 ft 485 kts 137°
2026-05-06 18:04 50.44746 14.09093 38728 ft 484 kts 137°
2026-05-06 18:04 50.40195 14.16861 38733 ft 484 kts 137°
2026-05-06 18:05 50.35635 14.24617 38741 ft 483 kts 137°
2026-05-06 18:05 50.31073 14.32354 38741 ft 483 kts 137°
2026-05-06 18:06 50.26541 14.40016 38727 ft 483 kts 137°
2026-05-06 18:06 50.21986 14.47697 38749 ft 480 kts 137°
2026-05-06 18:07 50.17443 14.55333 38740 ft 480 kts 138°
2026-05-06 18:07 50.12897 14.62947 38739 ft 479 kts 138°
2026-05-06 18:08 50.08359 14.70553 38735 ft 480 kts 136°
2026-05-06 18:08 50.04198 14.78769 38742 ft 484 kts 132°
2026-05-06 18:09 50.00159 14.87178 38748 ft 486 kts 132°
2026-05-06 18:09 49.96129 14.95627 38745 ft 486 kts 132°
2026-05-06 18:10 49.92088 15.04053 38739 ft 486 kts 132°
2026-05-06 18:10 49.88034 15.12456 38722 ft 486 kts 132°
2026-05-06 18:11 49.84648 15.19446 38733 ft 489 kts 132°
2026-05-06 18:11 49.79866 15.29287 38732 ft 490 kts 132°
2026-05-06 18:12 49.75763 15.37706 38727 ft 490 kts 132°
2026-05-06 18:12 49.71655 15.46108 38728 ft 490 kts 132°
2026-05-06 18:13 49.67539 15.54496 38720 ft 491 kts 132°
2026-05-06 18:13 49.63407 15.62891 38729 ft 492 kts 132°
2026-05-06 18:14 49.59293 15.71228 38721 ft 492 kts 132°
2026-05-06 18:14 49.55148 15.79598 38714 ft 491 kts 132°
2026-05-06 18:15 49.50995 15.87960 38726 ft 492 kts 132°
2026-05-06 18:15 49.46829 15.96318 38711 ft 492 kts 133°
2026-05-06 18:16 49.42662 16.04654 38725 ft 492 kts 133°
2026-05-06 18:16 49.38483 16.12988 38728 ft 492 kts 133°
2026-05-06 18:17 49.34981 16.19950 38708 ft 492 kts 133°
2026-05-06 18:17 49.30799 16.28241 38719 ft 492 kts 133°
2026-05-06 18:18 49.26610 16.36523 38723 ft 491 kts 133°
2026-05-06 18:18 49.22419 16.44781 38726 ft 491 kts 133°
2026-05-06 18:19 49.18228 16.53013 38721 ft 491 kts 133°
2026-05-06 18:19 49.14027 16.61238 38714 ft 491 kts 133°
2026-05-06 18:20 49.09812 16.69463 38720 ft 492 kts 133°
2026-05-06 18:20 49.05585 16.77691 38720 ft 493 kts 133°
2026-05-06 18:21 49.01357 16.85896 38727 ft 492 kts 133°
2026-05-06 18:21 48.97117 16.94099 38613 ft 492 kts 133°
2026-05-06 18:22 48.95000 16.98184 38376 ft 492 kts 133°
2026-05-06 18:22 48.92902 17.02225 38094 ft 493 kts 133°
2026-05-06 18:22 48.90777 17.06312 37788 ft 494 kts 133°
2026-05-06 18:22 48.88643 17.10408 37514 ft 494 kts 133°
2026-05-06 18:23 48.86508 17.14499 37246 ft 495 kts 133°
2026-05-06 18:23 48.84244 17.18418 36986 ft 493 kts 137°
2026-05-06 18:23 48.81916 17.22225 36717 ft 493 kts 138°
2026-05-06 18:23 48.79558 17.26012 36446 ft 493 kts 139°
2026-05-06 18:24 48.77192 17.29772 36195 ft 493 kts 139°
2026-05-06 18:24 48.74817 17.33526 35937 ft 494 kts 139°
2026-05-06 18:24 48.72436 17.37282 35684 ft 494 kts 139°
2026-05-06 18:24 48.70058 17.41033 35428 ft 495 kts 139°
2026-05-06 18:25 48.67672 17.44795 35192 ft 495 kts 139°
2026-05-06 18:25 48.65287 17.48555 34936 ft 496 kts 139°
2026-05-06 18:25 48.62898 17.52316 34681 ft 496 kts 139°
2026-05-06 18:25 48.60508 17.56076 34442 ft 496 kts 139°
2026-05-06 18:26 48.58119 17.59829 34201 ft 496 kts 139°
2026-05-06 18:26 48.55726 17.63583 33955 ft 496 kts 139°
2026-05-06 18:26 48.53332 17.67333 33700 ft 497 kts 139°
2026-05-06 18:26 48.50931 17.71086 33431 ft 497 kts 139°
2026-05-06 18:27 48.48528 17.74839 33163 ft 498 kts 139°
2026-05-06 18:27 48.46116 17.78599 32887 ft 499 kts 139°
2026-05-06 18:27 48.43702 17.82358 32629 ft 499 kts 139°
2026-05-06 18:27 48.41293 17.86106 31895 ft 498 kts 139°
2026-05-06 18:28 48.38881 17.89852 31014 ft 499 kts 139°
2026-05-06 18:28 48.36462 17.93600 30155 ft 500 kts 139°
2026-05-06 18:28 48.34037 17.97353 29251 ft 500 kts 139°
2026-05-06 18:28 48.31629 18.01080 28670 ft 493 kts 138°
2026-05-06 18:29 48.29255 18.04750 28065 ft 487 kts 138°
2026-05-06 18:29 48.26943 18.08430 27467 ft 483 kts 136°
2026-05-06 18:29 48.24723 18.12169 26876 ft 478 kts 135°
2026-05-06 18:29 48.22524 18.15884 26258 ft 473 kts 136°
2026-05-06 18:30 48.20341 18.19551 25659 ft 469 kts 136°
2026-05-06 18:30 48.18175 18.23171 25072 ft 465 kts 136°
2026-05-06 18:30 48.16023 18.26752 24476 ft 460 kts 136°
2026-05-06 18:30 48.13890 18.30295 23888 ft 456 kts 136°
2026-05-06 18:31 48.11777 18.33797 23271 ft 452 kts 135°
2026-05-06 18:31 48.09681 18.37266 22663 ft 447 kts 136°
2026-05-06 18:31 48.07610 18.40688 22068 ft 440 kts 136°
2026-05-06 18:31 48.05568 18.44058 21487 ft 434 kts 136°
2026-05-06 18:32 48.03576 18.47341 20913 ft 429 kts 136°
2026-05-06 18:32 48.01556 18.50666 20318 ft 424 kts 136°
2026-05-06 18:32 47.99581 18.53911 19752 ft 420 kts 136°
2026-05-06 18:32 47.97629 18.57114 19174 ft 415 kts 136°
2026-05-06 18:33 47.95702 18.60295 18607 ft 411 kts 135°
2026-05-06 18:33 47.93826 18.63413 18032 ft 407 kts 135°
2026-05-06 18:33 47.91944 18.66540 17409 ft 403 kts 135°
2026-05-06 18:33 47.90080 18.69630 16822 ft 398 kts 135°
2026-05-06 18:34 47.88218 18.72713 16237 ft 393 kts 135°
2026-05-06 18:34 47.86397 18.75723 15678 ft 388 kts 135°
2026-05-06 18:34 47.84596 18.78695 15152 ft 387 kts 136°
2026-05-06 18:34 47.82801 18.81653 14914 ft 393 kts 136°
2026-05-06 18:35 47.80937 18.84728 14864 ft 396 kts 136°
2026-05-06 18:35 47.79115 18.87722 14862 ft 395 kts 135°
2026-05-06 18:35 47.77264 18.90758 14874 ft 396 kts 135°
2026-05-06 18:35 47.75414 18.93793 14769 ft 393 kts 135°
2026-05-06 18:36 47.73589 18.96787 14140 ft 391 kts 135°
2026-05-06 18:36 47.71788 18.99741 13836 ft 379 kts 135°
2026-05-06 18:36 47.70049 19.02589 13599 ft 366 kts 136°
2026-05-06 18:36 47.68373 19.05337 13361 ft 353 kts 136°
2026-05-06 18:37 47.66752 19.07985 13128 ft 341 kts 136°
2026-05-06 18:37 47.65202 19.10514 12847 ft 322 kts 136°
2026-05-06 18:37 47.63724 19.12924 12385 ft 310 kts 136°
2026-05-06 18:37 47.62284 19.15263 11772 ft 305 kts 136°
2026-05-06 18:38 47.60860 19.17573 11123 ft 302 kts 136°
2026-05-06 18:38 47.59453 19.19854 10471 ft 299 kts 136°
2026-05-06 18:38 47.58056 19.22126 9830 ft 296 kts 136°
2026-05-06 18:38 47.56677 19.24364 9241 ft 291 kts 136°
2026-05-06 18:39 47.55313 19.26571 8803 ft 289 kts 136°
2026-05-06 18:39 47.53961 19.28758 8376 ft 287 kts 137°
2026-05-06 18:39 47.52624 19.30921 8040 ft 283 kts 137°
2026-05-06 18:40 47.49977 19.35204 7403 ft 280 kts 137°
2026-05-06 18:40 47.48660 19.37325 7081 ft 279 kts 137°
2026-05-06 18:40 47.47352 19.39432 6779 ft 278 kts 137°
2026-05-06 18:40 47.46046 19.41535 6469 ft 277 kts 137°
2026-05-06 18:41 47.44745 19.43625 6156 ft 276 kts 137°
2026-05-06 18:41 47.43451 19.45713 5844 ft 275 kts 137°
2026-05-06 18:41 47.42163 19.47783 5523 ft 272 kts 137°
2026-05-06 18:41 47.40888 19.49829 5208 ft 270 kts 137°
2026-05-06 18:42 47.39617 19.51865 4913 ft 269 kts 136°
2026-05-06 18:42 47.38372 19.53863 4752 ft 258 kts 136°
2026-05-06 18:42 47.37048 19.55514 4609 ft 241 kts 154°
2026-05-06 18:42 47.35512 19.56181 4399 ft 231 kts 180°
2026-05-06 18:43 47.33960 19.55734 4157 ft 228 kts 206°
2026-05-06 18:43 47.32665 19.54404 3911 ft 228 kts 221°
2026-05-06 18:43 47.31521 19.52780 3665 ft 227 kts 228°
2026-05-06 18:43 47.30866 19.50772 3585 ft 216 kts 262°
2026-05-06 18:44 47.31093 19.48645 3507 ft 208 kts 286°
2026-05-06 18:44 47.31703 19.46757 3420 ft 201 kts 294°
2026-05-06 18:44 47.32545 19.45150 3286 ft 195 kts 309°
2026-05-06 18:44 47.33452 19.43705 3034 ft 191 kts 306°
2026-05-06 18:45 47.34331 19.42247 2769 ft 189 kts 307°
2026-05-06 18:45 47.35204 19.40839 2509 ft 183 kts 307°
2026-05-06 18:45 47.36042 19.39491 2285 ft 172 kts 306°
2026-05-06 18:45 47.36563 19.38647 2118 ft 164 kts 306°
2026-05-06 18:46 47.37547 19.37057 1836 ft 150 kts 305°
2026-05-06 18:46 47.38229 19.35956 1658 ft 141 kts 304°
2026-05-06 18:46 47.38889 19.34890 1447 ft 141 kts 305°
2026-05-06 18:46 47.39539 19.33817 1290 ft 141 kts 307°
2026-05-06 18:47 47.40196 19.32743 1084 ft 140 kts 310°
2026-05-06 18:47 47.40858 19.31688 931 ft 141 kts 308°
2026-05-06 18:47 47.41521 19.30629 751 ft 140 kts 310°
2026-05-06 18:47 47.42180 19.29568 563 ft 139 kts 309°
2026-05-06 18:48 47.42816 19.28541 458 ft 122 kts 312°
2026-05-06 18:48 47.43207 19.27913 463 ft 54 kts 313°
2026-05-06 18:48 47.43443 19.27531 469 ft 47 kts 311°
2026-05-06 18:48 47.43657 19.27193 473 ft 44 kts 310°
2026-05-06 18:49 47.43865 19.26856 470 ft 45 kts 311°
2026-05-06 18:49 47.44035 19.26578 469 ft 22 kts 311°
2026-05-06 18:49 47.44068 19.26405 472 ft 19 kts 256°
2026-05-06 18:49 47.43966 19.26221 465 ft 26 kts 221°
2026-05-06 18:50 47.43827 19.26035 463 ft 28 kts 222°
2026-05-06 18:50 47.43691 19.25854 464 ft 26 kts 222°
2026-05-06 18:50 47.43558 19.25674 463 ft 26 kts 222°
2026-05-06 18:50 47.43460 19.25544 463 ft 18 kts 222°
2026-05-06 18:51 47.43385 19.25444 463 ft 11 kts 219°
2026-05-06 18:51 47.43321 19.25469 463 ft 12 kts 132°
2026-05-06 18:51 47.43257 19.25572 463 ft 14 kts 133°
2026-05-06 18:51 47.43201 19.25661 463 ft 10 kts 132°
2026-05-06 18:52 47.43209 19.25734 463 ft 8 kts 45°
2026-05-06 18:52 47.43240 19.25777 463 ft 5 kts 43°
2026-05-06 18:52 47.43253 19.25794 463 ft 0 kts 43°